Theta_e
316 316 318 318 321 324 325 330 339 342 348 364 360 342 348 360 359 357 357 356 353 352 352 351 352 357 353 354 354 354 349 348
316 315 317 318 323 324 327 330 336 343 340 340 352 347 355 360 361 358 362 358 357 360 353 350 350 352 352 351 347 349 349 346
317 321 323 327 327 331 331 337 341 343 342 340 342 345 342 354 350 355 355 351 354 355 355 353 357 355 350 348 346 346 348 347
319 323 325 330 332 335 339 339 343 346 346 348 345 346 347 347 352 350 347 357 354 358 359 358 355 352 354 353 351 350 346 342
321 324 325 329 331 337 340 339 343 345 346 345 342 341 338 341 339 347 355 357 358 359 360 360 358 357 352 354 350 351 349 348
322 323 327 330 333 335 339 340 341 345 347 346 344 338 340 341 341 348 355 351 350 360 356 353 355 355 353 352 351 347 347 346
324 323 326 330 334 336 337 340 339 342 343 344 344 344 340 342 344 343 358 353 354 353 354 355 357 355 351 350 350 349 345 345
321 322 326 329 333 337 338 338 339 343 342 343 341 341 339 338 341 343 346 358 352 352 353 354 356 351 347 349 348 346 346 344
321 322 325 328 334 336 337 335 338 338 339 337 335 333 335 335 340 346 348 354 354 357 352 355 353 349 346 347 343 340 339 343
319 321 325 330 332 337 336 336 336 335 337 338 340 335 332 335 338 340 347 349 353 354 352 349 351 349 347 346 344 340 335 340
316 317 321 323 326 333 334 336 335 333 337 335 338 338 337 335 337 342 348 344 339 329 340 351 350 351 339 344 345 340 334 335
314 315 318 320 322 328 332 336 334 331 335 332 334 337 333 334 337 334 350 345 333 326 335 352 348 340 337 341 343 341 336 331
314 314 316 319 320 321 328 331 333 331 331 332 332 334 337 340 342 340 343 335 327 329 326 326 324 325 322 327 334 336 337 332
314 315 317 318 321 322 322 328 332 329 329 329 329 330 332 335 337 337 333 334 331 330 331 327 324 323 320 320 330 334 335 335
312 312 313 316 318 320 320 321 324 327 325 325 327 324 327 331 334 334 333 331 333 335 337 330 331 327 327 328 334 338 337 335
309 312 313 313 315 319 318 317 315 321 325 323 325 326 323 326 331 333 332 333 330 332 333 335 333 329 333 335 334 335 336 334
309 311 314 314 315 316 314 314 317 321 320 323 323 322 322 323 326 331 330 330 330 332 333 331 330 329 329 327 329 327 323 325
311 311 309 313 315 317 319 316 317 319 322 322 321 322 321 325 324 326 328 330 327 326 326 326 324 322 320 319 320 318 318 319
308 309 309 309 310 314 317 318 317 318 318 320 321 319 321 323 321 323 324 323 322 321 320 318 316 314 314 315 314 315 313 311
308 309 311 310 310 312 313 316 314 315 318 317 318 321 321 321 320 319 318 316 316 315 315 313 312 312 312 311 310 309 307 306
Wind_Speed
8 8 10 12 14 9 12 9 9 13 5 7 4 6 8 11 11 10 9 7 7 6 4 6 7 11 7 11 10 8 11 9
9 10 11 12 15 16 16 14 11 8 8 7 4 5 8 9 12 11 4 1 4 5 3 4 8 7 10 8 7 11 13 13
8 9 8 11 10 12 13 13 11 10 9 8 8 8 6 3 7 6 8 8 11 2 2 4 3 2 5 6 4 5 10 12
7 10 11 8 10 9 10 12 9 8 7 7 8 7 7 5 2 6 7 9 3 7 4 4 3 3 4 4 4 5 6 5
10 10 9 10 10 12 12 11 10 10 9 8 7 8 9 5 7 8 9 8 8 5 3 2 4 3 2 3 6 4 4 6
12 10 10 10 10 11 11 12 12 11 10 8 8 8 9 9 6 4 8 8 5 5 6 7 6 5 4 5 4 5 5 5
9 7 9 9 9 9 10 12 14 14 13 10 9 10 9 9 8 4 7 9 11 8 9 7 6 4 5 4 3 4 5 5
6 4 6 7 8 7 8 9 12 14 11 9 8 8 8 10 8 6 7 9 9 13 5 6 5 4 6 4 6 5 5 6
5 6 4 5 3 4 6 9 11 12 10 10 9 9 9 8 8 9 8 5 10 8 5 6 7 7 9 6 6 8 6 7
5 5 6 5 6 3 5 7 10 11 10 11 9 8 10 11 10 8 9 8 2 2 5 5 7 6 9 7 7 4 6 4
5 7 9 9 7 5 6 6 8 10 14 11 12 7 8 8 9 5 4 7 8 8 9 7 6 1 3 4 3 4 4 3
1 6 6 8 9 6 8 7 9 10 15 14 16 13 9 9 10 9 4 3 9 8 19 7 7 9 13 7 6 6 7 6
7 7 8 10 12 8 5 7 8 10 12 14 13 14 13 11 10 11 7 6 6 2 11 11 9 5 5 9 14 12 8 8
10 11 10 12 15 17 16 9 8 11 13 16 17 16 16 14 15 10 4 6 7 4 10 3 7 4 4 6 11 11 11 10
15 17 14 13 14 13 13 18 15 11 12 14 16 17 17 15 14 10 9 8 4 15 8 3 0 6 0 4 12 8 8 8
23 23 21 17 12 13 12 14 13 17 9 11 12 14 9 10 13 10 9 7 6 12 11 1 3 1 3 5 5 6 7 7
8 8 9 16 8 10 8 9 7 10 14 9 9 11 12 12 16 12 6 6 5 8 8 9 9 9 7 8 5 7 7 6
15 15 14 14 17 4 3 3 5 10 8 7 9 10 11 11 13 16 14 10 12 13 14 9 8 8 7 7 6 7 6 4
13 15 13 14 15 11 6 4 8 8 9 12 7 9 12 11 9 12 14 15 13 13 11 11 10 8 8 7 7 7 6 6
13 6 8 7 18 10 12 9 11 15 6 8 11 6 8 9 9 8 14 14 11 11 9 9 9 9 8 7 6 6 6 7
Wind_Direction
301 312 323 342 350 346 359 355 38 358 330 162 200 163 133 238 213 200 185 189 228 249 238 184 188 205 215 212 219 222 234 234
340 340 360 354 1 352 351 354 7 2 350 321 187 223 172 195 209 190 102 328 261 233 234 205 188 211 204 223 215 217 217 227
351 5 15 16 356 1 346 354 355 346 335 326 327 329 317 109 143 183 142 183 223 266 280 288 281 246 190 221 238 269 217 217
357 18 18 359 12 354 9 347 323 309 308 316 315 306 298 293 214 195 183 177 158 182 225 279 280 307 285 322 331 316 309 275
46 23 4 14 3 7 356 330 346 341 319 307 304 293 285 265 255 238 195 149 177 197 164 251 265 256 244 274 280 286 318 311
52 10 22 17 16 7 353 347 331 331 330 316 297 286 291 290 265 257 151 145 189 162 189 213 231 231 230 232 244 263 265 266
67 7 29 20 28 13 359 352 350 337 321 311 298 289 279 276 279 274 167 170 188 207 199 187 181 247 235 229 239 227 264 277
64 3 30 22 32 18 7 2 346 334 322 305 292 271 261 275 253 270 244 183 175 200 208 154 184 220 256 230 228 235 225 260
57 26 10 19 36 39 30 10 354 339 338 329 320 303 293 254 264 225 252 237 190 175 191 174 187 215 233 237 243 249 257 247
17 356 353 17 352 49 63 35 10 341 341 324 291 279 282 286 297 237 225 220 111 298 182 218 195 209 225 210 219 257 288 285
21 14 1 359 347 346 42 54 33 4 342 336 329 304 283 267 271 264 196 151 152 157 251 219 229 246 317 350 353 334 262 263
215 7 352 344 328 335 49 32 28 16 351 343 341 321 292 291 294 276 163 158 42 34 301 233 27 23 4 337 332 335 315 286
43 300 3 345 360 12 59 17 35 22 6 343 350 351 342 321 322 351 69 90 115 181 324 47 64 65 40 329 318 307 298 285
11 2 356 20 18 18 356 12 18 23 22 345 356 357 352 342 346 351 358 332 266 151 71 214 95 113 202 237 286 278 283 288
356 346 10 351 14 13 9 0 357 19 21 348 350 2 0 348 352 351 18 18 306 45 131 47 258 262 261 310 278 282 283 283
0 4 344 328 359 37 24 16 2 311 24 2 348 357 1 355 350 6 14 15 37 23 358 10 207 1 318 327 325 320 331 325
351 335 316 310 358 63 62 29 317 332 351 355 357 360 352 356 358 352 11 11 0 49 19 33 14 25 9 338 324 343 333 338
342 340 2 14 346 58 117 254 267 347 356 349 350 354 347 360 18 351 347 8 5 20 13 2 3 7 1 340 333 321 312 341
344 356 6 13 308 324 338 355 330 332 347 337 8 349 349 358 21 355 355 1 4 7 360 350 354 356 6 358 359 353 25 21
3 345 348 283 272 355 329 346 338 342 325 340 340 350 351 348 354 15 27 346 357 3 359 351 357 13 22 20 28 28 33 40